Wednesday, June 20, 2018, 5:14 PM EDT
Back to Local

KORH, Worcester Regional Airport

Location: Worcester, MA, United States Lat: 42.267
Local Time: 5:14 PM EDT (21:14 GMT) Lon: -71.867
Time Zone: US/Eastern Elev: 1010 ft

Show me the last for .
Show Decoded

2018-06-20 16:54 METAR KORH 202054Z 27006KT 10SM CLR 22/13 A2982 RMK AO2 SLP096 T02220133 58012 =
2018-06-20 15:54 METAR KORH 201954Z 27006KT 10SM CLR 22/12 A2984 RMK AO2 SLP101 T02220122 =
2018-06-20 14:54 METAR KORH 201854Z 27009KT 10SM CLR 23/12 A2985 RMK AO2 SLP106 T02280117 =
2018-06-20 13:54 METAR KORH 201754Z 26008KT 10SM CLR 22/11 A2986 RMK AO2 SLP108 T02220106 10228
                 20189 56015 =
2018-06-20 12:54 METAR KORH 201654Z COR 25009KT 10SM CLR 23/12 A2987 RMK AO2 SLP110 T02280117 $ =
2018-06-20 11:54 METAR KORH 201554Z COR 270010KT 10SM CLR 22/11 A2989 RMK AO2 SLP119 T02170106 $
                 =
2018-06-20 11:47 METAR KORH 201547Z 10SM FEW001 22/11 A2989 RMK AO2 T02220106 $ =
2018-06-20 10:54 METAR KORH 201454Z 24008KT 10SM CLR 21/11 A2991 RMK AO2 SLP123 T02110106 56013 =
2018-06-20 09:54 METAR KORH 201354Z 19008KT 10SM CLR 20/10 A2991 RMK AO2 SLP126 T02000100 =
2018-06-20 08:54 METAR KORH 201254Z 13008KT 10SM CLR 20/09 A2993 RMK AO2 SLP133 T02000089 =
2018-06-20 07:54 METAR KORH 201154Z 12005KT 10SM CLR 19/10 A2994 RMK AO2 SLP137 T01890100 10189
                 20161 51013 =
2018-06-20 06:54 METAR KORH 201054Z 00000KT 10SM CLR 18/08 A2993 RMK AO2 SLP132 T01780083 =
2018-06-20 05:54 METAR KORH 200954Z AUTO 35005KT 10SM CLR 17/08 A2992 RMK AO2 SLP127 T01670078 =
2018-06-20 04:54 METAR KORH 200854Z AUTO 36005KT 10SM CLR 16/07 A2990 RMK AO2 SLP122 T01610072
                 55001 =
2018-06-20 03:54 METAR KORH 200754Z AUTO 34006KT 10SM CLR 16/08 A2990 RMK AO2 SLP121 T01610078 =
2018-06-20 02:54 METAR KORH 200654Z AUTO 34008KT 10SM CLR 17/08 A2990 RMK AO2 SLP122 T01670083 =
2018-06-20 01:54 METAR KORH 200554Z AUTO 34008KT 10SM CLR 17/08 A2991 RMK AO2 SLP123 T01720083
                 10211 20167 55000 =
2018-06-20 00:54 METAR KORH 200454Z 01006KT 10SM CLR 17/08 A2990 RMK AO2 SLP120 T01720083
                 402560172 =
2018-06-19 23:54 METAR KORH 200354Z 35009KT 10SM CLR 18/08 A2991 RMK AO2 SLP125 T01830078 =
2018-06-19 22:54 METAR KORH 200254Z 33008KT 10SM CLR 19/07 A2991 RMK AO2 SLP124 T01940072 51015 =
2018-06-19 21:54 METAR KORH 200154Z 32008KT 10SM CLR 19/08 A2990 RMK AO2 SLP122 T01890083 =
2018-06-19 20:54 METAR KORH 200054Z 30009KT 10SM CLR 19/09 A2987 RMK AO2 SLP112 T01940094 =
2018-06-19 19:54 METAR KORH 192354Z 29005KT 10SM CLR 21/11 A2986 RMK AO2 SLP108 T02110106 10256
                 20211 53015 =
2018-06-19 18:54 METAR KORH 192254Z 31009KT 10SM CLR 24/11 A2984 RMK AO2 SLP100 T02390106 =
2018-06-19 17:54 METAR KORH 192154Z 32010KT 10SM CLR 25/11 A2982 RMK AO2 SLP094 T02500111 =

Support USWX by starting your Amazon purchase here.